Location: *
(45.1961°N, 1.9694°E)
Time: 09:54:59
(UTC+00:00)

USA 267 - Pass Details

Date: 25 August 2019
Orbit: 1102 x 1106 km, 123.0° (Epoch: 17 October)

Event Time Altitude Azimuth Distance (km) Brightness Sun altitude
Rises 19:29:12 0° 50° (NE) 3,929 5.9 -8.5°
Reaches altitude 10° 19:31:41 10° 50° (NE) 2,970 5.3 -8.9°
Maximum altitude 19:38:15 82° 325° (NW) 1,120 3.4 -9.9°
Drops below altitude 10° 19:44:48 10° 238° (WSW) 2,961 6.0 -11.0°
Sets 19:47:16 0° 238° (WSW) 3,917 6.6 -11.4°
